Regional Weather Roundup
Issued by NWS

Home | Current Version | Previous Version | Text Only | Print | Product List | Glossary Off
Versions: 1 2 3 4 5 6 7 8 9 10 11 12 13 14 15 16 17 18 19 20 21 22 23 24 25 26 27 28 29 30 31 32 33 34 35 36 37 38 39 40 41 42 43 44 45 46 47 48 49 50

000
ASUS43 KMPX 232110
RWRMN
WEATHER ROUNDUP FOR MINNESOTA
NATIONAL WEATHER SERVICE TWIN CITIES/CHANHASSEN MN
400 PM CDT MON MAY 23 2016


NOTE: "FAIR" INDICATES FEW OR NO CLOUDS BELOW 12,000 FEET WITH NO
SIGNIFICANT WEATHER AND/OR OBSTRUCTIONS TO VISIBILITY. N/A MEANS
CURRENT SKY AND/OR WEATHER CONDITIONS ARE NOT AVAILABLE.

MNZ060>063-068>070-232200-
   Twin Cities Metro

CITY           SKY/WX    TMP DP  RH WIND       PRES   REMARKS
TWIN CITIES    CLOUDY    79  59  50 S20G30    29.74F
ST PAUL        CLOUDY    78  60  53 S16G24    29.74F
CRYSTAL        PTSUNNY   81  58  45 S20G26    29.72F
BLAINE         MOSUNNY   81  61  50 SW18G28   29.73F
EDEN PRAIRIE   CLOUDY    77  60  55 S21G31    29.74S
SOUTH ST PAUL  CLOUDY    79  59  49 SW18G28   29.75R
LAKE ELMO      PTSUNNY   79  63  57 SW17G31   29.76R
$$
MNZ001>005-007-008-013>017-022>024-027-028-232200-
   Northwest Minnesota

CITY           SKY/WX    TMP DP  RH WIND       PRES   REMARKS
BEMIDJI        MOSUNNY   78  51  39 W10G17    29.70R
HALLOCK        SUNNY     81  39  22 W15       29.63R
ROSEAU         MOSUNNY   79  46  31 W5        29.65R
WARROAD        SUNNY     77  50  38 W9        29.65R
THIEF RVR FALL MOSUNNY   75  54  46 W6        29.69S
CROOKSTON      MOSUNNY   77  54  44 SW5       29.67S
FOSSTON        MOSUNNY   75  52  43 SW8       29.70S
DETROIT LAKES  PTSUNNY   79  45  29 NW6       29.71S
MOORHEAD       CLOUDY    81  45  28 W10G16    29.67F
PARK RAPIDS    MOSUNNY   79  55  43 S9        29.71R
MAHNOMEN       FAIR      76  52  43 CALM      29.70S
$$
MNZ006-009>011-018-025>026-232200-
   North Central Minnesota

CITY           SKY/WX    TMP DP  RH WIND       PRES   REMARKS
BAUDETTE       PTSUNNY   80  48  32 W12G18    29.65R
FLAG ISLAND    PTSUNNY   73  48  40 W6        29.63R
INTL FALLS     PTSUNNY   75  60  59 MISG      29.66S
WASKISH        CLOUDY    75  57  53 MISG      29.68S
BIG FORK       CLOUDY    79  59  50 SW14G20   29.69S
LONGVILLE      PTSUNNY   79  55  44 S8        29.72S
GRAND RAPIDS     N/A    N/A N/A N/A MISG        N/A
CRANE LAKE     CLOUDY    73  55  53 S7G18     29.69S
ORR            CLOUDY    75  54  46 SW7       29.67R
COOK           MOSUNNY   75  57  53 SW13G20   29.71R
WALKER         MOCLDY    77  55  46 S8G21     29.69F
$$
MNZ012-019>021-037-232200-
   Northeast Minnesota

CITY           SKY/WX    TMP DP  RH WIND       PRES   REMARKS
DULUTH         CLOUDY    75  56  51 W12       29.75R
ELY            CLOUDY    73  54  49 SW13G21   29.71R
HIBBING        CLOUDY    75  56  51 SW13G21   29.72S
EVELETH        CLOUDY    72  54  53 SW13G18   29.73S
DULUTH HARBOR  MOSUNNY   79  57  47 SW18G26   29.72S
TWO HARBORS      N/A     79  61  53 SW12      29.72R
SILVER BAY     CLOUDY    77  54  44 S15       29.71R
GRAND MARAIS     N/A     51  41  68 CALM      29.72R
G MARAIS ARPRT PTSUNNY   72  48  43 S14G26    29.75R
$$
MNZ029>031-032-039>041-046>048-054>057-064-232200-
   West Central Minnesota

CITY           SKY/WX    TMP DP  RH WIND       PRES   REMARKS
FERGUS FALLS   MOSUNNY   79  48  34 CALM      29.66S
WHEATON        PTSUNNY   81  55  41 CALM      29.71S
MORRIS         MOSUNNY   79  57  47 SW8       29.71S
ALEXANDRIA     LGT RAIN  77  55  46 S9        29.74F
ELBOW LAKE     PTSUNNY   76  56  48 W9        29.71S
WADENA         MOSUNNY   77  55  47 SW13      29.72S
GLENWOOD       MOSUNNY   79  55  44 SW8       29.74S
APPLETON       CLOUDY    79  55  44 SW5       29.71S
BENSON         CLOUDY    77  54  44 SW7       29.71F
ORTONVILLE     CLOUDY    77  54  44 SW5       29.71F
MADISON        CLOUDY    79  55  44 S8        29.71S
WILLMAR        PTSUNNY   75  61  60 SW12      29.74F
$$
MNZ033>034-036-042>043-049>051-058-059-232200-
   Central Minnesota

CITY           SKY/WX    TMP DP  RH WIND       PRES   REMARKS
ST CLOUD       CLOUDY    74  60  61 W9        29.74F
SAUK CENTRE    CLOUDY    73  63  68 S8        29.74F
PAYNESVILLE    RAIN      71  61  72 SW6       29.76S
AITKIN         MOSUNNY   75  55  50 S9        29.74S
PINE RIVER     MOSUNNY   75  57  53 S10G18    29.76S
BRAINERD       PTSUNNY   75  60  59 S14       29.74F
STAPLES        MOSUNNY   77  54  44 S7        29.73F
LONG PRAIRIE   PTSUNNY   73  61  64 SE8       29.74F
LITTLE FALLS   CLOUDY    72  59  64 S7        29.75S
LITCHFIELD     CLOUDY    79  64  61 W7        29.74F
BUFFALO        CLOUDY    77  57  49 S5        29.73F
MAPLE LAKE     CLOUDY    79  60  52 SW7       29.73F
HUTCHINSON     PTSUNNY   79  63  58 SW8       29.74F
$$
MNZ037-044-045-052-053-232200-
   East Central Minnesota

CITY           SKY/WX    TMP DP  RH WIND       PRES   REMARKS
PRINCETON      PTSUNNY   79  61  53 W7        29.74F
MORA           MOSUNNY   75  59  57 CALM      29.75F
CAMBRIDGE        N/A     82  63  51 SW3       29.71F
RUSH CITY      CLOUDY    79  61  52 W3        29.73F
MOOSE LAKE     CLOUDY    73  55  53 SW9       29.73F
HINCKLEY       CLOUDY    77  61  57 W9        29.74F
CLOQUET        CLOUDY    73  55  53 W9        29.76S
MCGREGOR       CLOUDY    70  59  68 S9G17     29.76S
$$
MNZ071>073-080-081-089-090-097-098-232200-
   Southwest Minnesota

CITY           SKY/WX    TMP DP  RH WIND       PRES   REMARKS
MONTEVIDEO     CLOUDY    72  63  73 SW7       29.74F
GRANITE FALLS  LGT RAIN  73  63  71 SW13      29.75S
CANBY          PTSUNNY   78  62  58 SW6       29.73S
MARSHALL       MOSUNNY   73  63  70 W12       29.74S
REDWOOD FALLS  CLOUDY    78  60  53 S12       29.71F
OLIVIA         RAIN      70  57  64 SW13      29.73S
PIPESTONE      PTSUNNY   72  63  73 SW5       29.76R
WINDOM         PTSUNNY   77  63  61 S15       29.75F
WORTHINGTON    CLOUDY    73  64  73 S8        29.77S
JACKSON        CLOUDY    73  61  64 S12       29.79S
TRACY          CLOUDY    79  63  57 SW13      29.74F
SLAYTON        PTSUNNY   75  61  61 S14       29.76F
$$
MNZ065>067-074>077-082>085-091>093-232200-
   South Central Minnesota

CITY           SKY/WX    TMP DP  RH WIND       PRES   REMARKS
MANKATO        CLOUDY    73  61  64 S18       29.78S
NEW ULM        CLOUDY    79  61  53 S20G25    29.73F
ST JAMES       CLOUDY    72  57  60 S21       29.76S
FAIRMONT       CLOUDY    72  63  73 S15       29.78S
GLENCOE        CLOUDY    73  66  78 S6        29.73F
FARIBAULT      CLOUDY    72  61  68 S15G23    29.80R
OWATONNA       LGT RAIN  72  61  68 S22G28    29.80R
WASECA         CLOUDY    72  61  68 S23       29.81R
ALBERT LEA     LGT RAIN  68  61  77 S10G18    29.81R
$$
MNZ078>079-086>088-094>096-232200-
   Southeast Minnesota

CITY           SKY/WX    TMP DP  RH WIND       PRES   REMARKS
ROCHESTER      PTSUNNY   80  57  45 S26G35    29.79F
RED WING       CLOUDY    79  63  57 S3        29.74S
STANTON        CLOUDY    77  61  58 SW18      29.77R
DODGE CENTER   LGT RAIN  73  61  64 SW17G25   29.80R
WINONA         PTSUNNY   86  52  30 S9G20     29.79S
AUSTIN         CLOUDY    72  61  68 S17G24    29.82R
PRESTON        CLOUDY    82  55  40 S20G26    29.82S
$$
ABBREVIATIONS USED IN REMARKS
   TC - TEMPERATURES IN CELSIUS
  WCI - WIND CHILL INDEX
   HX - HEAT INDEX
  VSB - VISIBILITY
$$



USA.gov is the U.S. government's official web portal to all federal, state and local government web resources and services.